Location: Hradec Kralove
(50.2170°N, 15.8330°E)
Time: 13:16:22
(UTC+02:00)

Altair - Visible Passes

Search period start: 20 April 2024 00:00
Search period end: 30 April 2024 00:00
Orbit: 1502 x 1682 km, 47.2° (Epoch: 19 April)

Date Brightness Start Highest point End Pass type
(mag) Time Alt. Az. Time Alt. Az. Time Alt. Az.
20 Apr 7.4 00:04:15 10° W 00:13:58 69° SSW 00:18:04 38° SE visible
20 Apr 8.0 02:09:10 10° W 02:16:01 35° WSW 02:16:01 35° WSW visible
20 Apr 7.5 21:34:20 10° WSW 21:44:17 72° S 21:53:51 10° E visible
20 Apr 7.4 23:39:00 10° W 23:48:47 70° SSW 23:53:31 34° ESE visible
21 Apr 7.9 01:43:53 10° W 01:51:29 39° SW 01:51:29 39° SW visible
21 Apr 7.6 21:09:07 10° WSW 21:19:04 71° SSE 21:28:40 10° E visible
21 Apr 7.4 23:13:46 10° W 23:23:35 72° SSW 23:29:05 29° ESE visible
22 Apr 7.8 01:18:36 10° W 01:27:03 42° SW 01:27:03 42° SW visible
22 Apr 7.6 20:43:54 10° WSW 20:53:52 70° SSE 21:03:29 10° E visible
22 Apr 7.5 22:48:31 10° W 22:58:23 73° S 23:04:43 25° ESE visible
23 Apr 7.7 00:53:21 10° W 01:02:23 45° SSW 01:02:42 45° SSW visible
23 Apr 9.1 02:59:58 10° W 03:00:40 11° W 03:00:40 11° W visible
23 Apr 7.7 20:18:43 10° WSW 20:28:39 68° SSE 20:38:18 10° E visible
23 Apr 7.5 22:23:16 10° W 22:33:11 74° S 22:40:25 20° ESE visible
24 Apr 7.6 00:28:04 10° W 00:37:15 48° SSW 00:38:23 46° SSW visible
24 Apr 9.0 02:34:21 10° W 02:36:22 14° W 02:36:22 14° W visible
24 Apr 7.5 21:58:00 10° W 22:07:58 75° S 22:16:09 16° ESE visible
25 Apr 7.6 00:02:49 10° W 00:12:07 50° SSW 00:14:07 44° S visible
25 Apr 8.9 02:08:48 10° W 02:12:07 17° WSW 02:12:07 17° WSW visible
25 Apr 7.6 21:32:45 10° W 21:42:45 76° S 21:51:55 12° ESE visible
25 Apr 7.7 23:37:33 10° W 23:46:59 53° SSW 23:49:54 41° SSE visible
26 Apr 8.7 01:43:19 10° W 01:47:53 20° WSW 01:47:53 20° WSW visible
26 Apr 7.6 21:07:30 10° W 21:17:33 76° S 21:27:12 10° E visible
26 Apr 7.7 23:12:18 10° W 23:21:50 55° SSW 23:25:42 36° SSE visible
27 Apr 8.6 01:17:53 10° W 01:23:41 23° WSW 01:23:41 23° WSW visible
27 Apr 7.7 20:42:16 10° W 20:52:18 76° S 21:02:00 10° E visible
27 Apr 7.7 22:47:02 10° W 22:56:40 57° SSW 23:01:32 31° SE visible
28 Apr 8.5 00:52:28 10° W 00:59:32 25° SW 00:59:32 25° SW visible
28 Apr 7.7 22:21:47 10° W 22:31:30 60° SSW 22:37:24 25° SE visible
29 Apr 8.4 00:27:05 10° W 00:34:49 28° SW 00:35:24 27° SW visible
29 Apr 7.7 21:56:32 10° W 22:06:19 62° SSW 22:13:18 20° SE visible
